Regional Weather Roundup
Issued by NWS

Home | Current Version | Previous Version | Graphics & Text | Print | Product List | Glossary On
Versions: 1 2 3 4 5 6 7 8 9 10 11 12 13 14 15 16 17 18 19 20 21 22 23 24 25 26 27 28 29 30 31 32 33 34 35 36 37 38 39 40 41 42 43 44 45 46 47 48 49 50
000
ASUS45 KBOU 021107
RWRCO

WEATHER ROUNDUP FOR COLORADO
NATIONAL WEATHER SERVICE DENVER/BOULDER CO
400 AM MST MON MAR 02 2015

NOTE: "FAIR" INDICATES FEW OR NO CLOUDS BELOW 12000 FEET WITH NO
SIGNIFICANT WEATHER AND/OR OBSTRUCTIONS TO VISIBILITY.

COZ001>005-013-030-031-021200-
...NORTHWEST COLORADO...

CITY           SKY/WX    TMP DP  RH WIND       PRES   REMARKS
CRAIG          LGT SNOW  31  29  92 E5        29.91F VSB 3/4 WCI  26
HAYDEN         CLOUDY    28  25  86 SE7       29.91F VSB 3/4 WCI  21
MEEKER         CLOUDY    30  28  92 CALM      29.90F
MOUNT WERNER   NOT AVBL
STEAMBOAT SPGS CLOUDY    26  26  96 NW3       29.92S
WALDEN         CLOUDY    28  27  93 SE6       29.90F WCI  22
$$

COZ006>008-011-021200-
...WEST CENTRAL VALLEYS...

CITY           SKY/WX    TMP DP  RH WIND       PRES   REMARKS
GRAND JUNCTION CLOUDY    35  34  96 NE3       29.89F
MONTROSE       MOCLDY    37  34  89 E7        29.94F
EAGLE          CLOUDY    30  30 100 CALM      29.97F VSB 1
RIFLE          MIX PCPN  32  31  96 CALM      29.93F FOG
DELTA          CLOUDY    37  36  96 NE3       29.94F
NUCLA          FOG       32  32 100 CALM      29.96F VSB 1/2
$$

COZ017>023-064>068-021200-
...SOUTHWEST COLORADO...

CITY           SKY/WX    TMP DP  RH WIND       PRES   REMARKS
DURANGO        MOCLDY    33  32  96 E6        30.03F WCI  28
CORTEZ         CLOUDY    39  36  89 NE5       29.97F
PAGOSA SPRINGS MOCLDY    34  34 100 CALM      30.06F FOG
TELLURIDE      LGT SNOW  35  30  81 SE9G24    30.01S WCI  28
WOLF CREEK PAS CLOUDY    25  25 100 SW17G40   30.11R WCI  11
$$

COZ009-010-012-014-032>034-037-058>063-021200-
...CENTRAL COLORADO...

CITY           SKY/WX    TMP DP  RH WIND       PRES   REMARKS
ASPEN          LGT SNOW  30  29  96 CALM      29.92F FOG
BUENA VISTA    LGT SNOW  20  17  90 CALM      30.02F
COPPER MTN     LGT SNOW  27  21  80 S22G29    29.99S WCI  12
BERTHOUD PASS  SNOW      19  14  79 SW13      30.00F VSB 1/2 WCI   7
COTTONWOOD PAS FLURRIES  27  23  86 CALM      30.00S
GUNNISON       CLOUDY    27  21  80 CALM      30.03F
KREMMLING      LGT SNOW  30  28  93 CALM      29.96S
LEADVILLE      LGT SNOW  20  19  96 CALM      29.96F FOG
SALIDA         CLOUDY    21  18  88 CALM      30.11F
SUNLIGHT       SNOW      30  28  93 S3          N/A  VSB 1/2
WILKERSON PASS LGT SNOW  25  23  93 SW9G18    30.01F WCI  15
$$

COZ069>075-021200-
...SAN LUIS VALLEY/SANGRE DE CRISTO MOUNTAINS...

CITY           SKY/WX    TMP DP  RH WIND       PRES   REMARKS
ALAMOSA        PTCLDY    34  29  82 S18       30.01F WCI  23
LA VETA PASS   CLEAR     28  27  93 S14G28    30.06F WCI  17
SAGUACHE       CLOUDY    32  32 100 CALM      30.03F
$$

COZ035-036-038>040-021200-
...NORTHERN COLORADO FRONT RANGE...

CITY           SKY/WX    TMP DP  RH WIND       PRES   REMARKS
DENVER INTL AP MOCLDY    17  14  88 SW9       30.03F FOG     WCI   6
DMNS CITY PARK   N/A     20  15  83 W3        30.04F
AURORA         NOT AVBL
FRONT RANGE AP NOT AVBL
ERIE MUNI ARPT CLOUDY    22  19  90 W3        30.03F FOG
BOULDER MUN AP MOCLDY    19  18  93 W5        30.03F FOG     WCI  13
CENTENNIAL     MOCLDY    14  11  87 W5        30.01F FOG     WCI   6
BROOMFIELD     MOCLDY    19  18  93 CALM      30.04S FOG
FORT COLLINS   PTCLDY    21  18  86 N6        30.07F WCI  14
LONGMONT       PTCLDY    20  17  87 W6        30.07F FOG     WCI  12
$$

COZ041-046-047-076>085-087-088-021200-
...PIKES PEAK/PALMER DIVIDE AND SOUTHERN FOOTHILLS...

CITY           SKY/WX    TMP DP  RH WIND       PRES   REMARKS
COLO. SPRINGS  CLOUDY    20  19  96 S13       30.07F FOG     WCI   7
A. F. ACADEMY  CLOUDY    18  16  92 S12       30.03F WCI   5
ELLICOTT       NOT AVBL
FALCON         FOG       18  17  95 S14       30.03F VSB 1/2 WCI   4
FORT CARSON    MOCLDY    20  18  91 S9        30.06F WCI   9
LIMON          CLOUDY    21  19  92 S20G26    30.08F WCI   6
MONUMENT HILL  CLOUDY    18  14  86 S21       29.96F FOG     WCI   1
TRINIDAD       FOG       24  22  91 E6        30.08F VSB 1/2 WCI  17
$$

COZ042>045-048>051-090-091-021200-
...NORTHEAST COLORADO...

CITY           SKY/WX    TMP DP  RH WIND       PRES   REMARKS
GREELEY ARPT   PTCLDY    25  16  68 SE6       30.06F WCI  18
AKRON          CLOUDY    26  19  74 S17G26    30.11F WCI  13
BURLINGTON     CLEAR     23  19  85 S9        30.19F WCI  13
WRAY           CLOUDY    31  19  61 S10       30.20F WCI  22
STERLING       CLOUDY    28  23  80 S9        30.13F WCI  20
HOLYOKE        NOT AVBL
FORT MORGAN    CLOUDY    27  22  79 SE10      30.11F WCI  17
$$

COZ086-089-092>099-021200-
...SOUTHEAST COLORADO...

CITY           SKY/WX    TMP DP  RH WIND       PRES   REMARKS
PUEBLO         CLOUDY    25  22  88 SE5       30.13F WCI  19
LA JUNTA       CLOUDY    27  22  81 E8        30.16F WCI  19
LAMAR          CLOUDY    26  23  88 SE7       30.19F FOG     WCI  18
SPRINGFIELD      N/A     24  21  88 S13       30.19F WCI  12
$$


USA.gov is the U.S. government's official web portal to all federal, state and local government web resources and services.